Redding, CA

9:45 AM PST on November 22, 2019 (GMT -0800)
Redding Municipal

Weather History for KRDD - October, 2019

Change the Weather History Date:

Monday, October 21, 2019

  Actual Average Record
Temperature  
Mean Temperature 66 °F -  
Max Temperature 84 °F 75 °F 93 °F (1965)
Min Temperature 48 °F 48 °F 33 °F (1979)
Degree Days  
Heating Degree Days 0    
Cooling Degree Days 1    
Growing Degree Days 16 (Base 50)    
Moisture  
Dew Point 42 °F    
Average Humidity 51    
Maximum Humidity 80    
Minimum Humidity 22    
Precipitation  
Precipitation 0.00 in 0.09 in 1.51 in (1902)
Month to date precipitation 0.09 1.13  
Year to date precipitation 32.66 22.90  
Sea Level Pressure  
Sea Level Pressure 30.18 in    
Wind  
Wind Speed 5 mph (North)    
Max Wind Speed 21 mph    
Max Gust Speed 23 mph    
Visibility 10 miles    
Events      
T = Trace of Precipitation, MM = Missing Value Source: NWS Daily Summary

Daily Weather History Graph

Daily Weather History Graph

Search for Another Location

Airport or City:

Astronomy

Oct. 21, 2019 Rise Set
Actual Time 7:26 AM PDT 6:20 PM PDT
Civil Twilight 6:58 AM PDT 6:48 PM PDT
Nautical Twilight 6:26 AM PDT 7:19 PM PDT
Astronomical Twilight 5:55 AM PDT 7:51 PM PDT
Moon No Moon Rise 2:49 PM PDT (10/21)
Length of Visible Light 11h 49m
Length of Day
10h 53m
Waning Gibbous, 47% of the Moon is Illuminated
Oct 21
Waning Gibbous
Oct 27
New
Nov 4
First Quarter
Nov 12
Full
Nov 19
Last Quarter

Hourly Weather History & Observations

Time (PDT) Temp. Dew Point Humidity Pressure Visibility Wind Dir Wind Speed Gust Speed Precip Events Conditions
12:53 AM 53.1 °F 44.1 °F 71% 30.14 in 10.0 mi NW 4.6 mph - N/A   Clear
1:53 AM 51.1 °F 43.0 °F 74% 30.14 in 10.0 mi Calm Calm - N/A   Clear
2:53 AM 50.0 °F 43.0 °F 77% 30.14 in 10.0 mi NNE 3.5 mph - N/A   Clear
3:53 AM 50.0 °F 44.1 °F 80% 30.15 in 10.0 mi Calm Calm - N/A   Clear
4:53 AM 54.0 °F 45.0 °F 72% 30.15 in 10.0 mi North 4.6 mph - N/A   Clear
5:53 AM 51.1 °F 44.1 °F 77% 30.17 in 10.0 mi NNE 6.9 mph - N/A   Clear
6:53 AM 51.1 °F 43.0 °F 74% 30.18 in 10.0 mi NE 3.5 mph - N/A   Clear
7:53 AM 55.0 °F 44.1 °F 67% 30.19 in 10.0 mi North 3.5 mph - N/A   Clear
8:53 AM 63.0 °F 43.0 °F 48% 30.21 in 10.0 mi NNW 8.1 mph - N/A   Clear
9:53 AM 69.1 °F 42.1 °F 38% 30.22 in 10.0 mi North 10.4 mph - N/A   Clear
10:53 AM 73.9 °F 41.0 °F 30% 30.21 in 10.0 mi NNW 9.2 mph - N/A   Clear
11:53 AM 78.1 °F 37.0 °F 23% 30.21 in 10.0 mi NNE 16.1 mph - N/A   Clear
12:53 PM 80.1 °F 39.0 °F 23% 30.19 in 10.0 mi North 10.4 mph - N/A   Clear
1:53 PM 82.0 °F 39.0 °F 22% 30.18 in 10.0 mi North 15.0 mph 23.0 mph N/A   Clear
2:53 PM 82.9 °F 39.9 °F 22% 30.16 in 10.0 mi North 11.5 mph - N/A   Clear
3:53 PM 82.9 °F 39.9 °F 22% 30.16 in 10.0 mi NNE 10.4 mph - N/A   Clear
4:53 PM 82.9 °F 39.9 °F 22% 30.16 in 10.0 mi NNE 6.9 mph - N/A   Clear
5:53 PM 81.0 °F 41.0 °F 24% 30.16 in 10.0 mi NNE 5.8 mph - N/A   Clear
6:53 PM 73.0 °F 42.1 °F 33% 30.17 in 10.0 mi NNW 4.6 mph - N/A   Clear
7:53 PM 73.0 °F 43.0 °F 34% 30.18 in 10.0 mi NNW 6.9 mph - N/A   Clear
8:53 PM 66.0 °F 43.0 °F 43% 30.19 in 10.0 mi Variable 5.8 mph - N/A   Clear
9:53 PM 60.1 °F 43.0 °F 53% 30.20 in 10.0 mi North 3.5 mph - N/A   Clear
10:53 PM 63.0 °F 44.1 °F 50% 30.22 in 10.0 mi NNW 4.6 mph - N/A   Clear
11:53 PM 57.9 °F 43.0 °F 58% 30.22 in 10.0 mi Calm Calm - N/A   Clear